Henderson, KY

6:29 AM CST on November 13, 2019 (GMT -0600)
Henderson City-County

Weather History for KEHR - September, 2019

Change the Weather History Date:

Sunday, September 1, 2019

  Actual Average Record
Temperature  
Mean Temperature 76 °F -  
Max Temperature 87 °F 85 °F 103 °F (1953)
Min Temperature 64 °F 63 °F 47 °F (1987)
Cooling Degree Days 10    
Growing Degree Days 26 (Base 50)    
Moisture  
Dew Point 67 °F    
Average Humidity 90    
Maximum Humidity 100    
Minimum Humidity 53    
Precipitation  
Precipitation 0.00 in - - ()
Sea Level Pressure  
Sea Level Pressure 30.08 in    
Wind  
Wind Speed 1 mph (SSE)    
Max Wind Speed 9 mph    
Max Gust Speed 16 mph    
Visibility 4 miles    
Events Fog    
Averages and records for this station are not official NWS values.
T = Trace of Precipitation, MM = Missing Value Source: NWS Daily Summary

Daily Weather History Graph

Daily Weather History Graph

Search for Another Location

Airport or City:

Astronomy

Sep. 01, 2019 Rise Set
Actual Time 6:20 AM CDT 7:20 PM CDT
Civil Twilight 5:53 AM CDT 7:47 PM CDT
Nautical Twilight 5:21 AM CDT 8:18 PM CDT
Astronomical Twilight 4:48 AM CDT 8:51 PM CDT
Moon 8:48 AM CDT (9/1) 9:10 PM CDT (9/1)
Length of Visible Light 13h 53m
Length of Day
12h 59m
Waxing Crescent, 8% of the Moon is Illuminated
Sep 1
Waxing Crescent
Sep 5
First Quarter
Sep 13
Full
Sep 21
Last Quarter
Sep 28
New

Hourly Weather History & Observations

Time (CDT) Temp. Heat Index Dew Point Humidity Pressure Visibility Wind Dir Wind Speed Gust Speed Precip Events Conditions
12:56 AM 71.1 °F - 70.0 °F 96% 30.09 in 8.0 mi East 3.5 mph - N/A   Clear
1:27 AM 69.8 °F - 68.0 °F 94% 30.11 in 1.5 mi Calm Calm - N/A   Clear
1:32 AM 69.8 °F - 68.0 °F 94% 30.11 in 0.8 mi Calm Calm - N/A   Clear
1:40 AM 69.8 °F - 68.0 °F 94% 30.10 in 0.5 mi Calm Calm - N/A Fog Fog
1:56 AM 66.9 °F - 66.9 °F 100% 30.09 in 0.2 mi Calm Calm - N/A Fog Fog
2:08 AM 66.2 °F - 66.2 °F 100% 30.10 in 0.8 mi East 3.5 mph - N/A   Clear
2:17 AM 68.0 °F - 66.2 °F 94% 30.10 in 1.0 mi Calm Calm - N/A   Clear
2:36 AM 66.2 °F - 66.2 °F 100% 30.10 in 1.2 mi Calm Calm - N/A   Clear
2:39 AM 66.2 °F - 66.2 °F 100% 30.10 in 0.8 mi Calm Calm - N/A   Clear
2:56 AM 66.9 °F - 66.9 °F 100% 30.09 in 0.5 mi Calm Calm - N/A Fog Fog
3:00 AM 68.0 °F - 66.2 °F 94% 30.09 in 1.0 mi Calm Calm - N/A   Clear
3:04 AM 68.0 °F - 66.2 °F 94% 30.09 in 0.5 mi Calm Calm - N/A Fog Fog
3:13 AM 66.2 °F - 66.2 °F 100% 30.09 in 0.2 mi Calm Calm - N/A Fog Fog
3:25 AM 66.2 °F - 64.4 °F 94% 30.09 in 0.5 mi Calm Calm - N/A Fog Fog
3:36 AM 64.4 °F - 64.4 °F 100% 30.09 in 0.2 mi Calm Calm - N/A Fog Fog
3:56 AM 64.9 °F - 64.9 °F 100% 30.08 in 0.5 mi Calm Calm - N/A Fog Fog
4:06 AM 64.4 °F - 64.4 °F 100% 30.09 in 0.2 mi East 3.5 mph - N/A Fog Fog
4:18 AM 64.4 °F - 64.4 °F 100% 30.09 in 0.5 mi Calm Calm - N/A Fog Fog
4:28 AM 64.4 °F - 64.4 °F 100% 30.09 in 1.0 mi Calm Calm - N/A   Clear
4:33 AM 64.4 °F - 64.4 °F 100% 30.09 in 0.5 mi East 3.5 mph - N/A Fog Fog
4:56 AM 66.9 °F - 66.0 °F 97% 30.08 in 0.8 mi East 3.5 mph - N/A   Clear
5:07 AM 66.2 °F - 66.2 °F 100% 30.08 in 0.5 mi Calm Calm - N/A Fog Fog
5:16 AM 66.2 °F - 64.4 °F 94% 30.08 in 0.2 mi Calm Calm - N/A Fog Fog
5:51 AM 64.4 °F - 64.4 °F 100% 30.08 in 0.2 mi Calm Calm - N/A Fog Fog
5:56 AM 64.0 °F - 64.0 °F 100% 30.08 in 0.2 mi Calm Calm - N/A Fog Fog
6:56 AM 64.9 °F - 64.9 °F 100% 30.09 in 0.2 mi Calm Calm - N/A Fog Fog
7:11 AM 66.2 °F - 66.2 °F 100% 30.10 in 0.8 mi Calm Calm - N/A   Clear
7:16 AM 66.2 °F - 66.2 °F 100% 30.10 in 1.2 mi Calm Calm - N/A   Clear
7:22 AM 68.0 °F - 68.0 °F 100% 30.10 in 3.0 mi Calm Calm - N/A   Clear
7:56 AM 70.0 °F - 70.0 °F 100% 30.10 in 10.0 mi SSE 3.5 mph - N/A   Clear
8:56 AM 73.9 °F - 70.0 °F 87% 30.12 in 10.0 mi South 3.5 mph - N/A   Clear
9:56 AM 77.0 °F - 70.0 °F 79% 30.12 in 10.0 mi Calm Calm - N/A   Clear
10:56 AM 80.1 °F 83.6 °F 71.1 °F 74% 30.12 in 10.0 mi South 4.6 mph - N/A   Clear
11:56 AM 82.9 °F 87.5 °F 71.1 °F 67% 30.10 in 10.0 mi Variable 3.5 mph - N/A   Clear
12:56 PM 84.9 °F 88.8 °F 69.1 °F 59% 30.09 in 10.0 mi SSW 9.2 mph 16.1 mph N/A   Clear
1:56 PM 87.1 °F 90.6 °F 68.0 °F 53% 30.07 in 10.0 mi SSW 8.1 mph - N/A   Partly Cloudy
2:56 PM 84.0 °F 87.8 °F 69.1 °F 61% 30.05 in 10.0 mi WSW 5.8 mph - N/A   Mostly Cloudy
3:56 PM 84.9 °F 89.4 °F 70.0 °F 61% 30.04 in 10.0 mi SW 6.9 mph - N/A   Mostly Cloudy
4:56 PM 84.0 °F 88.4 °F 70.0 °F 63% 30.03 in 10.0 mi SSW 5.8 mph - N/A   Mostly Cloudy
5:56 PM 82.9 °F 87.0 °F 70.0 °F 65% 30.03 in 10.0 mi WSW 5.8 mph - N/A   Mostly Cloudy
6:56 PM 80.1 °F 83.8 °F 72.0 °F 76% 30.03 in 10.0 mi Calm Calm - N/A   Partly Cloudy
8:56 PM 72.0 °F - 70.0 °F 93% 30.05 in 10.0 mi Calm Calm - N/A   Clear
9:56 PM 71.1 °F - 69.1 °F 93% 30.06 in 10.0 mi Calm Calm - N/A   Clear
10:56 PM 70.0 °F - 69.1 °F 97% 30.07 in 10.0 mi Calm Calm - N/A   Partly Cloudy
11:56 PM 70.0 °F - 69.1 °F 97% 30.07 in 10.0 mi Calm Calm - N/A   Partly Cloudy